Tracking 20715 objects as of 27-May-2020
HD Live streaming from Space Station
objects crossing your sky now

IRIDIUM 33 DEB

Track IRIDIUM 33 DEB now!
10-day predictions


NORAD ID: 34532
Int'l Code: 1997-051HZ
Perigee: 648.4 km
Apogee: 707.4 km
Inclination: 86.3 °
Period: 98.2 minutes
Semi major axis: 7048 km
RCS: 0.027 m2 (small)
Launch date: September 14, 1997
Source: United States (US)
Launch site: TYURATAM MISSILE AND SPACE COMPLEX (TTMTR)

Note: This is SATELLITE DEBRIS
aabbcc
Your satellite tracking list
Your tracking list is empty




NASA's NSSDC Master Catalog

Two Line Element Set (TLE):
1 34532U 97051HZ  20146.46748552 +.00003711 +00000-0 +65006-3 0  9995
2 34532 086.3405 159.8372 0041825 161.7686 198.5039 14.66978246591963
Source of the keplerian elements: AFSPC